Tracking 19794 objects as of 21-Jul-2019
HD Live streaming from Space Station
objects crossing your sky now

NSS 5 (INTELSAT 803)

Track NSS 5 (INTELSAT 803) now!
NSS 5 (INTELSAT 803) is classified as:


NORAD ID: 24957
Int'l Code: 1997-053A
Perigee: 35,776.9 km
Apogee: 35,810.9 km
Inclination: 5.3 °
Period: 1,436.1 minutes
Semi major axis: 42164 km
RCS: 25.1188 m2 (large)
Launch date: September 23, 1997
Source: Netherlands (NETH)
Launch site: FRENCH GUIANA (FRGUI)

38 C-band, 6 Ku-band; Pacific Ocean region; shared capacity with Intelset.
aabbcc
Your satellite tracking list
Your tracking list is empty




NASA's NSSDC Master Catalog

Two Line Element Set (TLE):
1 24957U 97053A   19201.76971128  .00000100  00000-0  00000+0 0  9995
2 24957   5.3095  65.5400 0004034  53.1781 147.1092  1.00271355 79933
Source of the keplerian elements: AFSPC